Regional Weather Roundup
Issued by NWS

Home | Current Version | Previous Version | Graphics & Text | Print | Product List | Glossary On
Versions: 1 2 3 4 5 6 7 8 9 10 11 12 13 14 15 16 17 18 19 20 21 22 23 24 25 26 27
000
ASUS45 KCYS 190810
RWRWY

WYOMING REGIONAL WEATHER ROUNDUP
NATIONAL WEATHER SERVICE CHEYENNE WY
200 AM MDT SAT APR 19 2014

NOTE:  "FAIR" INDICATES FEW OR NO CLOUDS BELOW 12,000 FEET
WITH NO SIGNIFICANT WEATHER AND/OR OBSTRUCTIONS TO VISIBILITY.

WYZ001-190900-
YELLOWSTONE NATIONAL PARK

CITY           SKY/WX    TMP DP  RH WIND       PRES   REMARKS
LK YELLOWSTONE   N/A     25  20  81 W3        30.05R
W YELLOWSTONE  NOT AVBL

$$
WYZ002>013-054>058-071-098>099-190900-
NORTHERN WYOMING

CITY           SKY/WX    TMP DP  RH WIND       PRES   REMARKS
JACKSON        MOCLDY    36  25  64 CALM      30.04S
CODY           CLEAR     36  25  64 NE3       29.90S
GREYBULL       PTCLDY    40  28  62 S5        29.90R
WORLAND        PTCLDY    36  28  73 S6        29.92S WCI  31
SHERIDAN         N/A     39  32  75 S5          N/A
BUFFALO        PTCLDY    35  26  69 S6        29.95R WCI  30
GILLETTE       PTCLDY    30  26  85 W3        29.93R
HULETT         FAIR      43  21  42 NW5       29.93
NEWCASTLE      FAIR      43  23  45 N17G24    29.90

$$
WYZ014>020-022>026-101>103-190900-
CENTRAL WYOMING

CITY           SKY/WX    TMP DP  RH WIND       PRES   REMARKS
BIG PINEY      PTCLDY    26  14  60 SW7       30.06R WCI  18
PINEDALE       SUNNY     27  21  80 NW8       30.06F WCI  18
DUBOIS         FAIR      34  18  51 NW16G24   29.98R WCI  23
LANDER         PTCLDY    35  18  49 VRB3      29.93S
RIVERTON       PTCLDY    42  13  30 NW13      29.94R
CASPER         MOCLDY    35  28  75 CALM      29.98S
DOUGLAS        PTCLDY    42  36  79 N10       29.97R

$$
WYZ021-027>030-104>119-190900-
SOUTHERN WYOMING

CITY           SKY/WX    TMP DP  RH WIND       PRES   REMARKS
EVANSTON       MOCLDY    39  31  72 N7        30.07S WCI  34
KEMMERER       MOSUNNY   36  23  60 CALM      30.07S
FORT BRIDGER   FAIR      41  33  72 W6        30.09S
ROCK SPRINGS   CLOUDY    44  30  57 SW12      30.05R
DIXON          PTSUNNY   41  32  72 NE5       30.07S
RAWLINS        PTCLDY    44  31  60 W8        30.01S
SARATOGA       PTSUNNY   36  30  80 CALM      30.05S
LARAMIE        MOCLDY    34  29  82 SW6       30.02S WCI  29
CHEYENNE       CLOUDY    52  32  46 NW8       29.96S
TORRINGTON     CLOUDY    55  37  50 W7        29.87S
PINE BLUFFS    FAIR      48  34  57 NW7       29.92S

$$



USA.gov is the U.S. government's official web portal to all federal, state and local government web resources and services.